Location: Unspecified
(68.2333°N, 0.0000°E)
Time: 13:34:40
(UTC+00:00)

Daily predictions for brighter satellites

Satellite Brightness Start Highest point End
(mag) Time Altitude Azimuth Time Altitude Azimuth Time Altitude Azimuth
Cosmos 1048 Rocket 4.5 19:22:25 10° WSW 19:27:32 65° NNW 19:32:42 10° NE
Terra 2.7 19:24:15 10° ESE 19:28:34 35° NE 19:32:55 10° NNW
Cosmos 1725 Rocket 4.2 19:23:19 10° NNW 19:29:41 83° WSW 19:35:58 10° SSE
KORONAS-FOTON 4.2 19:28:34 10° NNW 19:32:24 67° WSW 19:36:14 10° S
Cosmos 1656 Rocket 3.8 19:27:08 10° WSW 19:32:39 81° NNW 19:38:07 10° ENE
ATLAS 3B R/B 4.1 19:30:50 10° SE 19:33:24 12° ESE 19:35:57 10° E
CARTOSAT-1 4.4 19:31:20 10° ESE 19:35:19 37° NE 19:39:20 10° NNW
Cosmos 1626 2.2 19:32:01 10° NNW 19:35:44 64° ENE 19:39:28 10° SSE
Cosmos 1570 Rocket 4.4 19:36:02 10° NW 19:41:20 68° SW 19:46:40 10° SSE
Cosmos 1766 3.5 19:38:47 10° S 19:42:31 47° E 19:46:17 10° NNE
Resurs 01 Rocket 1.9 19:39:11 10° SSE 19:43:38 73° WSW 19:48:07 10° NNW
SeaSat 1 3.0 19:38:52 10° ENE 19:43:43 57° N 19:48:34 10° W
GP-B 4.0 19:40:34 10° SSW 19:44:56 54° W 19:49:20 10° N
Cosmos 1697 Rocket 3.0 19:39:41 10° SSW 19:45:00 43° SE 19:50:20 10° NE
IGS 5A 4.1 19:42:42 10° ESE 19:46:38 42° NE 19:50:35 10° NNW
IRAS Rocket 4.4 19:41:11 10° SE 19:46:48 70° NE 19:52:26 10° NNW
Cosmos 1461 4.3 19:43:44 10° S 19:46:51 19° SE 19:49:53 10° E
SL-14 R/B 3.3 19:44:19 10° NNW 19:48:13 85° WSW 19:52:05 10° SSE
Cosmos 2322 Rocket 3.5 19:44:55 10° SE 19:48:39 18° ESE 19:52:24 10° ENE
SPOT 1/Viking Rocket 3.8 19:43:35 10° SE 19:48:42 58° NE 19:53:51 10° NNW
SL-16 R/B 4.3 19:46:56 10° NE 19:52:02 28° N 19:57:08 10° WNW
Cosmos 1455 Rocket 3.2 19:48:16 10° SSW 19:52:41 82° WNW 19:57:06 10° NNE
Cosmos 1607 4.1 19:46:51 10° SW 19:52:58 56° SSE 19:59:02 10° E
Cosmos 1470 3.8 19:50:23 10° SSE 19:53:47 27° E 19:57:11 10° NNE
Cosmos 2297 4.0 19:48:11 10° WNW 19:53:58 70° NNE 19:59:44 10° E
CZ-2C R/B 3.8 19:49:20 10° NNE 19:54:02 81° ESE 19:58:47 10° SSW
COBE Rocket 4.2 19:49:25 10° NNE 19:54:18 47° E 19:59:00 10° S
Cosmos 407 Rocket 3.9 19:50:09 10° S 19:55:02 41° ESE 19:59:54 10° NE
Cosmos 2369 3.9 19:50:13 10° SSW 19:55:44 53° SE 20:01:18 10° NE
Cosmos 2263 Rocket 3.7 19:50:48 10° NW 19:55:46 34° WSW 20:00:44 10° S
Cosmos 2058 Rocket 4.1 19:52:21 10° SE 19:56:00 26° E 19:59:41 10° NNE
Cosmos 192 4.4 19:52:36 10° NW 19:57:34 83° NE 20:02:26 10° SE
Cosmos 1656 3.7 19:52:39 10° SSW 19:58:04 60° SE 20:03:28 10° NE
Cosmos 1825 Rocket 4.2 19:54:30 10° NNW 19:58:52 61° WSW 20:03:14 10° S
Cosmos 2058 4.1 19:56:55 10° NNW 20:00:43 31° NE 20:04:15 11° ESE
Cosmos 841 Rocket 3.7 19:55:45 10° NW 20:01:00 77° SW 20:06:17 10° SE
Cosmos 1733 3.7 19:58:20 10° SSE 20:01:59 40° E 20:05:39 10° NNE
ALOS 2 4.4 19:59:14 10° E 20:02:33 21° NNE 20:05:52 10° NNW
Cosmos 494 Rocket 4.5 19:58:12 10° WSW 20:03:19 65° NNW 20:08:30 10° NE
CZ-2C R/B 4.1 20:00:25 10° NE 20:04:01 18° ENE 20:07:11 11° ESE
SL-08 RB Rocket 4.0 20:02:09 10° SSE 20:06:38 70° WSW 20:11:08 10° NNW
Meteor 1-22 Rocket 4.2 20:01:26 10° S 20:06:42 61° ESE 20:12:11 10° NNE
Cosmos 1703 3.6 20:02:53 10° NNW 20:06:48 51° ENE 20:10:24 12° SE
CZ-2C R/B 2.9 20:02:35 10° SSE 20:07:38 83° ENE 20:12:30 10° NNW
Cosmos 1328 3.9 20:04:48 10° NNW 20:08:49 63° ENE 20:12:44 10° SSE
Cosmos 2278 3.8 20:05:14 10° SSW 20:10:46 54° SE 20:16:21 10° NE
Helios 1A 4.0 20:08:01 12° ESE 20:11:31 34° NE 20:15:19 10° NNW
ERS-1 Rocket 3.0 20:07:30 10° SE 20:12:33 77° ENE 20:17:37 10° NNW
Cosmos 1140 Rocket 4.0 20:07:51 10° S 20:12:40 38° ESE 20:17:30 10° NE
GEOS 3 Rocket 4.4 20:07:44 10° SE 20:12:42 43° SSW 20:17:38 10° WNW
SL-16 R/B 3.2 20:09:03 10° SSE 20:13:34 25° ESE 20:18:06 10° ENE
Cosmos 2034 Rocket 4.2 20:07:36 10° NNW 20:14:00 67° ENE 20:20:22 10° SE
Cosmos 1076 Rocket 4.0 20:09:46 10° NNW 20:14:02 48° ENE 20:17:45 13° SE
Cosmos 1763 Rocket 4.1 20:09:49 10° NW 20:15:03 56° WSW 20:20:15 10° SSE
Cosmos 1727 Rocket 4.5 20:08:43 10° SSW 20:15:03 70° WNW 20:21:27 10° NNE
USA 234 4.2 20:10:08 10° SE 20:15:48 32° SSW 20:21:35 10° WSW
Cosmos 1464 Rocket 4.0 20:10:12 10° NNW 20:16:23 78° ENE 20:22:33 10° SSE
USA 245 1.8 20:14:54 14° SSE 20:16:45 80° ENE 20:19:09 10° NNW
Cosmos 1606 Rocket 3.8 20:12:39 10° S 20:16:48 46° E 20:20:57 10° NNE
Cosmos 1340 3.0 20:13:13 10° SSW 20:17:01 70° WNW 20:20:49 10° NNE
Thor Agena Rocket 4.5 20:12:53 10° NNE 20:17:12 27° E 20:21:28 10° SSE
Aureole 1 Rocket 4.4 20:09:46 10° WSW 20:17:21 77° NW 20:23:12 10° NE
Cosmos 1844 4.1 20:13:05 10° WNW 20:18:48 62° SW 20:24:20 11° SSE
Cosmos 773 Rocket 4.4 20:13:51 10° NW 20:18:57 55° NNE 20:23:45 11° E
USA 186 4.4 20:17:16 10° SW 20:19:47 21° W 20:22:13 10° NW
Spot 2 Rocket 4.0 20:14:51 10° S 20:19:57 62° WSW 20:25:03 10° NNW
MetOp-B 4.4 20:16:21 10° SSE 20:21:44 74° WSW 20:27:08 10° NNW
Cosmos 1805 3.2 20:19:39 10° SSW 20:23:34 78° ESE 20:27:30 10° NNE
Cosmos 540 Rocket 3.7 20:20:24 10° NW 20:25:34 73° SW 20:30:23 12° SSE
SPOT 5 2.8 20:21:54 11° SE 20:26:33 74° ENE 20:31:10 10° NNW
Aureole 2 Rocket 2.1 20:23:46 10° SW 20:26:58 84° NW 20:29:57 10° NE
Cosmos 1954 Rocket 4.4 20:22:45 10° S 20:27:42 41° ESE 20:32:39 10° NE
Meteor 1-4 Rocket 2.4 20:24:41 10° NNW 20:28:12 79° ENE 20:31:12 14° SSE
Cosmos 676 Rocket 4.4 20:24:27 10° S 20:29:30 44° ESE 20:34:32 10° NE
Cosmos 1818 4.1 20:26:51 10° SSW 20:31:50 37° SE 20:36:51 10° ENE
Cosmos 389 Rocket 2.4 20:28:56 10° NNW 20:32:30 80° ENE 20:35:25 15° SSE
Cosmos 1437 Rocket 2.8 20:28:36 10° NNW 20:32:33 74° ENE 20:35:51 15° SSE
Cosmos 2285 Rocket 4.3 20:28:22 10° S 20:34:23 45° ESE 20:40:28 10° NE
Cosmos 2278 Rocket 2.3 20:29:25 10° WNW 20:35:09 80° SW 20:39:52 15° SE
ADEOS Rocket 3.7 20:30:37 10° NNE 20:35:27 29° E 20:39:39 14° SE
Cosmos 1238 Rocket 4.0 20:29:57 10° NNW 20:36:10 59° ENE 20:40:35 15° SE
Cosmos 2360 Rocket 3.4 20:34:02 13° SE 20:37:06 20° ESE 20:41:07 10° ENE
Cosmos 1980 Rocket 2.3 20:34:49 10° SSW 20:40:21 53° SE 20:45:55 10° NE
Cosmos 405 Rocket 3.8 20:38:16 16° SE 20:40:39 28° E 20:44:10 10° NNE
Landsat 7 3.8 20:36:24 12° SSE 20:40:54 89° E 20:45:42 10° NNW
ERS-2 3.2 20:38:52 16° ESE 20:41:19 34° NE 20:44:43 10° NNW
Iridium 4 Rocket 4.2 20:37:46 10° SSW 20:42:48 62° WNW 20:48:20 10° N
Cosmos 2219 Rocket 4.1 20:42:30 11° E 20:42:53 11° E 20:44:06 10° E
Cosmos 1680 Rocket 4.3 20:37:54 10° WNW 20:43:01 49° NNE 20:48:06 10° E
Cosmos 1953 2.6 20:40:25 10° S 20:44:22 49° E 20:48:18 10° NNE
Cosmos 1844 Rocket 3.5 20:39:15 10° NW 20:44:35 45° SW 20:49:43 11° SSE
Cosmos 1726 Rocket 3.5 20:40:58 10° S 20:45:14 60° ESE 20:49:31 10° NNE
COSMOS 2428 4.5 20:45:31 12° E 20:46:05 12° E 20:48:16 10° ENE
ARGOS 4.4 20:41:25 10° SSW 20:46:32 42° W 20:51:39 10° NNW
Cosmos 2251 Rocket 3.9 20:42:15 10° WSW 20:47:36 70° NNW 20:53:01 10° NE
EO 1 Del DPAF 3.5 20:45:34 10° NNE 20:49:17 46° ESE 20:52:58 10° S
Cosmos 2369 Rocket 2.5 20:44:22 10° WNW 20:50:00 68° N 20:55:37 10° E
ATLAS 5 CENTAUR R/B 4.4 20:48:09 15° ESE 20:50:04 17° E 20:56:47 10° ENE
Cosmos 2123 Rocket 4.0 20:44:34 10° SSW 20:50:47 88° WNW 20:57:04 10° NNE
Cosmos 1346 Rocket 4.4 20:46:59 10° WSW 20:50:52 40° NW 20:54:43 10° NNE
H-2A R/B 3.4 20:48:47 10° SSW 20:53:47 39° W 20:58:41 10° NNW
Cosmos 1726 3.5 20:53:12 19° ESE 20:54:09 21° E 20:56:57 10° NE
Cosmos 1943 Rocket 2.5 20:51:42 10° WNW 20:57:25 69° N 21:03:06 10° E
Cosmos 1634 Rocket 4.1 20:51:54 10° NNW 20:58:04 64° ENE 21:02:48 18° SE
Cosmos 2228 2.9 20:56:13 10° S 21:00:31 70° ESE 21:04:49 10° NNE
NOSS 3-2 (C) 4.5 20:57:35 10° S 21:02:41 26° SE 21:08:16 10° ENE
MTI 3.7 21:01:46 10° NNE 21:04:56 84° WNW 21:08:06 10° SSW
Cosmos 1825 4.0 21:02:12 10° N 21:05:12 21° NE 21:07:34 13° E
Terra 1.8 21:02:20 17° SSE 21:06:02 90° N 21:10:51 10° NNW
Cosmos 2279 Rocket 4.3 21:00:05 10° NNW 21:06:15 55° ENE 21:10:45 19° SE
Cosmos 1758 3.2 21:02:52 10° SSW 21:06:52 85° ESE 21:10:54 10° NNE
NOSS 3-2 (A) 4.2 21:04:38 10° SSW 21:10:00 31° SE 21:16:00 10° ENE
Cosmos 1626 3.9 21:07:32 10° NNW 21:10:52 31° W 21:14:12 10° SSW
CARTOSAT-1 3.7 21:07:51 16° SSE 21:11:14 75° WSW 21:15:35 10° NNW
Cosmos 1892 3.7 21:08:26 10° NNW 21:12:01 35° NE 21:14:00 21° ESE
Cosmos 1538 Rocket 4.1 21:07:06 10° NW 21:12:19 71° NE 21:16:01 19° ESE
Spot 4 4.1 21:09:51 21° SE 21:12:58 58° NE 21:17:40 10° NNW
In-Cosmos 22 Rocket 4.5 21:08:21 10° NNW 21:14:10 63° ENE 21:18:12 20° SE
SWAS 4.5 21:10:55 10° WSW 21:15:17 88° NNW 21:19:40 10° ENE
Cosmos 1656 Rocket 4.0 21:11:12 10° W 21:16:40 65° N 21:22:05 10° E
Cosmos 1441 Rocket 3.1 21:13:00 10° S 21:16:50 68° ESE 21:20:43 10° NNE
Cosmos 1766 4.4 21:14:57 10° SW 21:18:42 45° WNW 21:22:30 10° NNE
Cosmos 1271 Rocket 3.6 21:16:22 10° NNW 21:20:12 42° NE 21:22:20 23° ESE
Resurs 01 Rocket 3.9 21:17:21 10° SW 21:20:52 23° W 21:24:24 10° NW
SeaSat 1 2.7 21:16:57 15° E 21:21:02 69° NNE 21:25:59 10° WNW
IGS 5A 3.9 21:18:50 16° S 21:22:03 60° WSW 21:26:13 10° NNW
ATLAS 3B R/B 3.3 21:16:26 10° S 21:22:08 30° SE 21:27:46 10° ENE
Meteor 2-11 Rocket 4.5 21:17:25 10° NNW 21:23:37 77° ENE 21:27:59 21° SSE
Okean 3 Rocket 3.6 21:19:30 10° NNW 21:24:05 86° ENE 21:26:54 23° SSE
Cosmos 1461 3.3 21:21:09 10° SW 21:25:12 40° SSE 21:28:33 13° E
Cosmos 2333 Rocket 3.7 21:25:49 17° ESE 21:26:25 17° E 21:30:04 10° ENE
CENTAUR R/B 3.6 21:23:31 17° SSE 21:26:44 25° ESE 21:32:28 10° ENE
Cosmos 1908 4.0 21:25:31 27° SE 21:26:45 33° E 21:30:16 10° NNE
Cosmos 1190 Rocket 4.0 21:21:33 10° SW 21:26:54 89° SE 21:32:17 10° NE
Cosmos 2151 3.1 21:23:43 10° NNW 21:28:03 65° ENE 21:30:22 26° SE
SPOT 1/Viking Rocket 4.2 21:23:31 12° S 21:28:16 54° WSW 21:33:26 10° NNW
Mayak 0.7 21:25:57 10° NE 21:28:27 15° ENE 21:29:16 14° E
Cosmos 1697 Rocket 2.7 21:23:00 10° WSW 21:28:42 88° SSE 21:34:23 10° ENE
Cosmos 614 Rocket 3.9 21:23:35 10° SW 21:28:49 84° SE 21:34:07 10° NE
Cosmos 1470 2.9 21:25:34 10° SSW 21:29:34 79° WNW 21:33:34 10° NNE
Cosmos 2322 Rocket 2.4 21:26:13 10° SSW 21:31:34 47° SE 21:36:57 10° NE
COBE Rocket 4.5 21:28:01 10° NNE 21:33:00 61° WNW 21:37:48 10° SW
SL-19 R/B 4.0 21:29:16 10° NNE 21:33:07 69° ESE 21:35:31 18° SSW
Cosmos 2058 Rocket 3.0 21:29:11 10° SSW 21:33:35 89° ESE 21:38:03 10° NNE
SL-16 R/B 4.1 21:29:07 10° ENE 21:34:22 30° NNE 21:39:37 10° NW
Cosmos 220 Rocket 4.5 21:32:03 10° NW 21:36:20 55° NNE 21:39:11 20° E
Cosmos 407 Rocket 3.5 21:31:32 10° SW 21:36:49 84° NW 21:42:03 10° NE
Cosmos 1733 4.1 21:33:51 10° SW 21:37:40 52° WNW 21:41:30 10° NNE
Cosmos 2058 2.9 21:33:52 10° NNW 21:38:08 86° WSW 21:40:28 26° SSE
ALOS 2 3.2 21:35:45 23° ESE 21:38:09 46° NE 21:42:22 10° NNW
Cosmos 2297 3.7 21:32:35 10° WNW 21:38:23 78° SW 21:42:00 24° SE
Cosmos 1766 Rocket 3.5 21:34:01 10° NNW 21:38:24 85° ENE 21:40:46 27° SSE
Cosmos 1932 4.4 21:33:16 10° WSW 21:39:25 64° SSE 21:45:40 10° E
Cosmos 2369 3.8 21:34:05 10° WSW 21:39:49 83° NNW 21:45:36 10° ENE
Cosmos 1607 3.9 21:33:40 10° W 21:39:53 67° S 21:45:12 14° ESE
Cosmos 1656 3.8 21:36:12 10° WSW 21:41:44 77° NNW 21:47:14 10° ENE
Cosmos 1703 4.3 21:39:07 10° NNW 21:42:53 42° W 21:45:47 15° SSW
Cosmos 2360 4.2 21:37:11 10° SW 21:42:56 82° SSE 21:48:43 10° ENE
Cosmos 1743 Rocket 3.8 21:41:10 10° NNW 21:45:29 56° ENE 21:47:32 28° SE
CZ-2C R/B 2.7 21:40:24 10° NNE 21:45:33 52° ESE 21:48:43 22° S
Cosmos 1408 3.7 21:43:20 10° NNW 21:46:50 35° NE 21:48:22 24° E
Helios 1A 3.0 21:44:39 27° SSE 21:46:52 80° WSW 21:51:05 10° NNW
CZ-2C R/B 4.4 21:43:29 10° SSW 21:48:02 33° W 21:52:27 10° NNW
Meteor 1-16 Rocket 4.2 21:44:56 13° S 21:49:57 72° ESE 21:55:41 10° NNE
Cosmos 1076 Rocket 4.2 21:47:24 10° NNW 21:51:39 51° W 21:54:33 19° SSW
ERS-1 Rocket 4.2 21:47:07 10° SSW 21:51:48 37° W 21:56:30 10° NNW
Cosmos 2322 4.4 21:50:38 25° SSE 21:52:50 33° ESE 21:57:53 10° NE
Cosmos 1140 Rocket 3.5 21:48:55 10° SW 21:54:12 88° NW 21:59:29 10° NE
Cosmos 1606 Rocket 4.3 21:50:26 10° SW 21:54:41 52° WNW 21:58:57 10° NNE
Cosmos 2278 3.8 21:49:06 10° WSW 21:54:51 82° NNW 22:00:37 10° ENE
SL-16 R/B 2.2 21:51:15 10° SSW 21:56:50 59° SE 22:02:26 10° NE
Thor Agena Rocket 3.4 21:52:10 10° NNE 21:57:16 79° ESE 22:02:04 12° SSW
Cosmos 2263 4.3 21:53:01 10° WNW 21:58:47 77° NNE 22:03:25 17° ESE
DMSP B5D2-2 4.0 21:55:07 10° NNE 22:00:23 89° WNW 22:05:37 10° SSW
Cosmos 1408 Rocket 3.5 21:56:03 10° NNW 22:00:25 88° WSW 22:02:27 31° SSE
Cosmos 773 Rocket 3.9 21:56:01 10° NW 22:01:12 78° SW 22:03:52 29° SSE
H-2A R/B 3.9 21:57:50 11° E 22:01:23 27° NE 22:05:09 10° NNW
Aureole 2 Rocket 3.9 21:58:46 10° W 22:01:38 33° NNW 22:04:20 10° NE
Cosmos 1500 Rocket 3.7 21:58:07 10° NNW 22:02:37 64° ENE 22:04:35 32° SE
Meteor 1-4 Rocket 4.5 22:00:07 10° NW 22:02:57 24° W 22:05:26 12° SW
SPOT 5 4.0 22:01:08 13° SSW 22:05:01 37° W 22:09:20 10° NNW
Cosmos 389 Rocket 4.5 22:04:03 10° NW 22:06:57 24° W 22:09:20 13° SW
Meteor 2-3 Rocket 4.1 22:02:16 10° NNW 22:08:01 60° NE 22:11:18 25° SE
Cosmos 1850 Rocket 3.9 22:03:11 10° SSW 22:08:24 70° SE 22:13:36 10° NE
Cosmos 1437 Rocket 4.4 22:05:09 10° NW 22:08:34 29° W 22:11:16 14° SSW
Cosmos 1300 3.5 22:08:58 31° ESE 22:09:29 33° E 22:12:57 10° NNE
Cosmos 1954 Rocket 4.1 22:04:10 10° SW 22:09:30 84° NW 22:14:50 10° NE
USA 238 DEB 3.9 22:03:04 10° SW 22:09:36 48° SSE 22:16:21 10° E
USA 238 3.9 22:03:11 10° SW 22:09:43 48° SSE 22:16:27 10° E
Cosmos 1242 Rocket 3.7 22:07:44 10° NNW 22:11:13 36° NE 22:12:40 25° E
Cosmos 724 4.4 22:05:06 10° WSW 22:11:20 70° S 22:17:33 10° E
Cosmos 676 Rocket 4.1 22:06:02 10° SW 22:11:25 81° NW 22:16:47 10° NE
Cosmos 2221 4.2 22:11:36 18° E 22:12:28 19° E 22:15:29 10° NE
MOS 1 Rocket 4.2 22:09:20 10° NNE 22:13:11 29° E 22:14:09 27° ESE
ERS-2 2.3 22:13:31 38° S 22:14:49 68° WSW 22:18:31 10° NNW
Cosmos 1818 3.6 22:09:27 10° WSW 22:14:51 59° SSE 22:20:16 10° E
Cosmos 1238 Rocket 4.3 22:09:53 10° NNW 22:15:55 55° W 22:19:34 20° SSW
Cosmos 405 Rocket 2.9 22:13:23 18° SSW 22:16:21 81° WNW 22:20:29 10° NNE
Cosmos 2278 Rocket 3.1 22:13:37 10° NW 22:18:48 37° WSW 22:21:43 22° S
YAOGAN 11 4.1 22:18:10 34° S 22:20:00 75° WSW 22:24:23 10° NNW
Cosmos 2360 Rocket 2.4 22:15:40 16° SSW 22:20:03 50° SE 22:25:32 10° NE
Cosmos 1953 3.4 22:16:56 10° SW 22:20:53 46° WNW 22:24:50 10° NNE
Cosmos 2285 Rocket 4.1 22:14:27 10° SW 22:20:55 86° NW 22:27:25 10° NE
Meteor 2-10 4.2 22:18:15 25° S 22:21:33 68° ESE 22:27:13 10° NNE
ADEOS Rocket 2.7 22:16:17 10° NNE 22:21:51 81° ESE 22:26:37 16° SSW
EO 1 Del DPAF 4.2 22:19:46 10° NNE 22:23:28 47° NW 22:27:08 10° SW
Landsat 4 3.8 22:19:54 10° NNE 22:23:41 74° WNW 22:26:06 21° SW
Cosmos 1980 Rocket 2.3 22:18:31 10° WSW 22:24:16 83° NNW 22:30:02 10° ENE
Cosmos 2219 Rocket 3.0 22:24:11 29° SE 22:25:12 31° ESE 22:30:04 10° NE
Cosmos 1680 Rocket 3.5 22:20:24 10° NW 22:25:41 81° NE 22:28:31 28° SE
Cosmos 1812 Rocket 3.6 22:22:56 23° SSW 22:25:41 88° WNW 22:30:13 10° NNE
Cosmos 1741 Rocket 3.9 22:20:42 10° SW 22:26:01 80° SE 22:31:24 10° NE
SL-16 R/B 4.2 22:26:34 12° E 22:27:10 12° E 22:29:18 10° ENE
Cosmos 2237 Rocket 3.5 22:27:21 21° ESE 22:27:52 21° ESE 22:32:01 10° ENE
COSMOS 2428 3.4 22:27:28 30° SE 22:28:48 34° ESE 22:33:51 10° NE
Cosmos 1726 2.0 22:27:42 39° SSW 22:28:58 86° ESE 22:32:40 10° NNE
Cosmos 2369 Rocket 2.1 22:28:42 10° WNW 22:34:20 85° SSW 22:37:32 27° SE
Cosmos 1805 Rocket 3.8 22:30:08 10° NNW 22:34:28 60° ENE 22:36:05 35° SE
Cosmos 1666 Rocket 4.3 22:30:53 10° NNW 22:35:15 47° ENE 22:37:11 29° ESE
Cosmos 2112 Rocket 4.0 22:30:27 10° NW 22:35:43 83° NE 22:38:28 29° SE
Helios 1B rocket 3.2 22:33:31 10° NNE 22:37:21 34° E 22:37:57 33° ESE
Cosmos 968 Rocket 4.5 22:36:54 26° ESE 22:37:35 27° ESE 22:41:53 10° NE
Cosmos-2242 3.1 22:38:59 41° SSE 22:40:16 60° ESE 22:44:31 10° NNE
Cosmos 1825 2.3 22:37:39 10° NNW 22:41:27 65° ENE 22:42:24 45° SE
Cosmos 1943 Rocket 2.1 22:35:44 10° WNW 22:41:27 83° SW 22:44:38 28° SE
Terra 3.3 22:41:12 15° SW 22:44:23 30° W 22:48:35 10° NNW
Cosmos 1184 Rocket 4.1 22:46:52 29° E 22:46:52 29° E 22:49:31 10° NE
Cosmos 1633 Rocket 3.7 22:42:23 10° NNW 22:46:39 47° ENE 22:48:24 30° ESE
Cosmos 1892 2.9 22:44:12 10° NNW 22:48:02 64° WSW 22:49:01 44° SSW
Spot 4 4.4 22:48:58 29° SSW 22:51:07 49° WSW 22:55:48 10° NNW
Cosmos 2279 Rocket 4.2 22:45:38 10° NNW 22:51:49 63° W 22:55:20 27° S
NOSS 3-2 (C) 3.9 22:46:07 10° SW 22:52:17 48° SSE 22:59:15 10° E
Tsikada Rocket 4.1 22:47:55 19° SSW 22:52:43 84° WNW 22:59:08 10° NNE
Cosmos 923 Rocket 4.0 22:47:31 10° NW 22:52:52 75° SW 22:55:07 35° SSE
Cosmos 1538 Rocket 4.4 22:49:24 10° NW 22:54:26 51° WSW 22:56:22 34° S
Meteor 1-29 3.9 22:52:40 10° NNE 22:55:50 33° E 22:55:50 33° E
Cosmos 1271 Rocket 3.1 22:52:27 10° NNW 22:56:24 56° WSW 22:57:29 41° SSW
SeaSat 1 2.4 22:56:43 36° SSE 22:58:41 68° SW 23:03:39 10° NW
CZ-4C R/B 3.8 22:58:08 36° SE 22:59:46 63° ENE 23:04:11 10° NNW
NOSS 3-2 (A) 3.7 22:53:36 10° SW 22:59:47 52° SSE 23:06:52 10° E
SL-24 R/B - RUBIN 2 4.0 22:59:54 41° SSE 22:59:54 41° SSE 23:04:29 10° E
Cosmos 1656 Rocket 3.6 22:55:09 10° WNW 23:00:39 84° NNE 23:04:22 21° ESE
Sich 1 3.1 22:57:20 10° NNW 23:01:38 69° ENE 23:02:59 42° SE
USA 267 4.3 22:56:33 10° E 23:00:09 23° SE 23:00:09 23° SE
Cosmos 1908 3.6 23:00:38 29° SW 23:02:27 63° WNW 23:06:20 10° NNE
Cosmos 1461 2.9 22:59:46 10° WSW 23:03:57 56° S 23:04:58 43° SE
Mayak -0.9 23:00:54 10° NNE 23:05:02 49° E 23:05:52 42° SE
Cosmos 2151 4.1 23:01:13 10° NNW 23:05:12 36° W 23:06:57 25° SW
Cosmos 2333 Rocket 2.6 23:07:46 35° SSE 23:09:29 44° SE 23:14:55 10° NE
Cosmos 2333 4.3 23:08:23 31° SSW 23:10:54 54° SE 23:16:32 10° NE
USA 81 4.1 23:08:31 30° SSW 23:11:13 82° WNW 23:16:35 10° NNE
Cosmos 158 Rocket 4.1 23:06:02 10° NW 23:11:27 77° NE 23:14:41 25° ESE
ATLAS 3B R/B 2.7 23:05:18 10° SW 23:11:48 52° SSE 23:18:13 10° E
Cosmos 1697 Rocket 3.0 23:07:21 10° W 23:13:00 68° N 23:18:40 10° ENE
ALOS 2 2.9 23:13:08 40° SSW 23:14:29 58° WSW 23:18:52 10° NNW
Meteor 2-1 Rocket 4.3 23:11:25 30° SSW 23:14:32 81° ESE 23:20:30 10° NNE
Cosmos 1503 Rocket 4.4 23:13:26 37° SSE 23:14:49 45° ESE 23:19:53 10° NE
Cosmos 220 Rocket 4.0 23:10:36 10° NW 23:14:53 64° SW 23:15:51 48° S
Cosmos 2322 Rocket 2.1 23:09:44 10° WSW 23:15:24 89° NNW 23:21:06 10° ENE
CENTAUR R/B 3.0 23:10:28 14° SW 23:15:59 47° SSE 23:23:17 10° E
SL-16 R/B 3.3 23:11:40 12° ESE 23:17:02 48° NE 23:22:56 10° NNW
Cosmos 407 Rocket 4.4 23:14:14 10° W 23:19:20 49° NNW 23:24:23 10° ENE
Cosmos 1455 2.9 23:19:57 38° ESE 23:20:18 39° E 23:23:56 10° NNE
Cosmos 1408 2.8 23:18:25 10° NNW 23:22:08 61° WSW 23:22:44 52° SSW
Cosmos 1743 Rocket 4.3 23:19:12 10° NNW 23:23:19 43° W 23:24:41 32° SW
Cosmos 2369 4.1 23:18:43 10° W 23:24:26 67° N 23:30:10 10° E
Cosmos 1656 4.0 23:20:21 10° W 23:25:50 66° N 23:31:17 10° E
CZ-2C R/B 3.1 23:20:53 10° NNE 23:26:03 59° NW 23:30:14 15° SW
Cosmos 1932 4.4 23:20:31 10° W 23:26:42 64° SSW 23:32:25 13° ESE
Cosmos 1607 4.1 23:20:42 10° W 23:26:44 52° SSW 23:29:18 32° SSE
Cosmos 1486 Rocket 3.9 23:26:21 35° SSW 23:28:32 67° SE 23:33:45 10° NE
CZ-4B R/B 4.0 23:27:29 10° E 23:29:42 17° NE 23:31:54 10° N
NOSS 0 Rocket 4.4 23:28:20 34° SSE 23:30:07 41° ESE 23:35:55 10° ENE
Cosmos 1842 Rocket 3.6 23:30:55 46° SSE 23:32:05 66° ESE 23:36:34 10° NNE
Cosmos 1980 4.3 23:31:36 34° SSE 23:32:48 39° ESE 23:38:01 10° NE
S3M 4.2 23:26:30 10° NNW 23:32:49 66° ENE 23:36:17 27° SE
Cosmos 2322 3.6 23:32:30 21° SW 23:36:27 73° SE 23:42:11 10° ENE
Cosmos 1140 Rocket 4.4 23:31:21 10° W 23:36:29 51° NNW 23:41:36 10° ENE
Aureole 2 Rocket 4.3 23:33:58 10° WNW 23:36:37 26° N 23:39:07 10° ENE
H-2A R/B 2.5 23:34:56 33° SE 23:36:50 62° ENE 23:41:19 10° NNW
Cosmos 2278 4.1 23:33:43 10° W 23:39:26 67° N 23:45:10 10° E
SL-16 R/B 2.3 23:35:14 10° WSW 23:40:57 79° NNW 23:46:41 10° ENE
Cosmos 972 Rocket 4.4 23:36:45 13° SW 23:42:20 78° NW 23:47:53 10° NE
Cosmos 2263 4.3 23:37:22 10° WNW 23:43:02 62° SW 23:45:20 36° SSE
Cosmos 2237 4.1 23:39:43 14° SW 23:44:46 81° SE 23:50:33 10° ENE
Cosmos 1300 3.0 23:43:54 41° SW 23:45:02 62° WNW 23:48:51 10° NNE
Iridium 2 3.6 23:42:13 10° NNW 23:46:04 86° W 23:46:41 62° S
Cosmos 1242 Rocket 2.7 23:42:40 10° NNW 23:46:22 61° WSW 23:46:44 57° SW
Aureole 1 Rocket 4.5 23:41:37 10° WNW 23:48:07 54° NNE 23:53:03 10° E
ERS-2 4.2 23:48:09 17° WSW 23:49:05 18° W 23:51:41 10° NW
Cosmos 2221 2.6 23:48:27 49° SSE 23:49:21 64° ESE 23:53:39 10° NNE
ATLAS CENTAUR R/B 3.0 23:51:28 25° ESE 23:51:28 25° ESE 23:54:54 10° E
Meteor 2-3 Rocket 4.1 23:45:42 10° NNW 23:51:19 54° W 23:53:35 34° SSW
DELTA 2 DEB (DPAF) 4.3 23:50:30 45° SSW 23:51:40 61° WSW 23:56:09 10° NNW
MOS 1 Rocket 3.1 23:47:35 10° NNE 23:51:57 84° WNW 23:53:28 42° SSW
